Hourly Data Report for October 20, 2013

All times are specified in Local Standard Time (LST). Add 1 hour to adjust for Daylight Saving Time where and when it is observed.

PETAWAWA AWOS 2
ONTARIO

45°57'00.000" N
77°19'00.000" W
130.10 m
6106396
71625
YWA

Download Data

Hourly Data (October 2013)
Hourly Data Report for October 20, 2013
Temp Definition
°C
Dew Point Temp Definition
°C
Rel Hum Definition
%
Wind Dir Definition
10's deg

Wind Spd Definition
km/h
Visibility Definition
km
Stn Press Definition
kPa
Hmdx Definition


Wind Chill Definition


Weather Definition


TIME
00:00 7.3 6.2 93 23 9 15.0 98.54      
01:00 7.1 5.8 91 26 7 15.0 98.61      
02:00 7.0 5.2 88 25 9 15.0 98.66      
03:00 6.6 3.4 80 26 13 15.0 98.73      
04:00 5.6 2.0 78 26 15 15.0 98.80      
05:00 5.7 2.2 78 25 7 15.0 98.87      
06:00 5.2 2.7 84 27 9 15.0 98.95     Rain
07:00 4.8 2.7 86 26 9 15.0 99.04      
08:00 5.8 2.4 79 27 20 15.0 99.16      
09:00 6.6 2.0 72 26 17 15.0 99.26      
10:00 7.0 1.3 67 27 20 15.0 99.36      
11:00 7.4 0.8 63 28 17 15.0 99.43      
12:00 8.7 0.8 58 28 17 15.0 99.49      
13:00 9.1 0.2 54 29 15 15.0 99.49      
14:00 10.6 0.2 49 29 17 15.0 99.51      
15:00 10.7 0.1 48 31 11 15.0 99.56      
16:00 10.6 0.0 48 29 6 15.0 99.60      
17:00 9.4 -0.4 50 31 6 15.0 99.66      
18:00 5.1 1.7 79   0 15.0 99.74      
19:00 2.7 1.2 90 26 4 15.0 99.79      
20:00 1.4 0.4 93 23 4 15.0 99.84      
21:00 0.6 -0.4 93   0 15.0 99.89      
22:00 -0.4 -1.2 94 18 4 15.0 99.90   -2  
23:00 -0.7 -0.9 99 21 4 15.0 99.91   -2  

Notes on Data Quality.

Legend

  • E = Estimated
  • M = Missing
  • NA = Not Available
  • ‡ = Partner data that is not subject to review by the National Climate Archives
Date modified: